| time (UTC) | temp F | wind direction | speed MPH | gust MPH | rain 1hr in | rain 24hr in | rain mn in | humidity % | barometer mb |
| 20260506103055 | 63 | 160 | 1.0 | 3.0 | 0.00 | 0.00 | 0.00 | 73 | 998.7 |
| 20260506101551 | 63 | 166 | 2.0 | 6.0 | 0.00 | 0.00 | 0.00 | 72 | 998.4 |
| 20260506100051 | 63 | 200 | 1.0 | 7.0 | 0.00 | 0.00 | 0.00 | 72 | 998.5 |
| 20260506094551 | 63 | 170 | 1.0 | 6.0 | 0.00 | 0.00 | 0.00 | 72 | 998.4 |
| 20260506093057 | 62 | 173 | 1.0 | 3.0 | 0.00 | 0.00 | 0.00 | 72 | 998.7 |
| 20260506091559 | 62 | 0 | 0.0 | 1.0 | 0.00 | 0.00 | 0.00 | 72 | 998.5 |
| 20260506090056 | 62 | 0 | 0.0 | 0.0 | 0.00 | 0.00 | 0.00 | 71 | 998.7 |
| 20260506084613 | 63 | 0 | 0.0 | 1.0 | 0.00 | 0.00 | 0.00 | 70 | 998.7 |
| 20260506083053 | 63 | 0 | 0.0 | 0.0 | 0.00 | 0.00 | 0.00 | 69 | 998.7 |
| 20260506081553 | 63 | 0 | 0.0 | 1.0 | 0.00 | 0.00 | 0.00 | 68 | 998.9 |
| 20260506073100 | 65 | 0 | 0.0 | 1.0 | 0.00 | 0.00 | 0.00 | 65 | 998.9 |
| 20260506071553 | 66 | 0 | 0.0 | 1.0 | 0.00 | 0.00 | 0.00 | 64 | 998.9 |
| 20260506061601 | 66 | 0 | 1.0 | 7.0 | 0.00 | 0.00 | 0.00 | 62 | 999.4 |
| 20260506050108 | 67 | 0 | 0.0 | 1.0 | 0.00 | 0.00 | 0.00 | 58 | 999.7 |
| 20260506044552 | 67 | 0 | 0.0 | 0.0 | 0.00 | 0.00 | 0.00 | 57 | 999.7 |
| 20260506043049 | 67 | 0 | 0.0 | 0.0 | 0.00 | 0.00 | 0.00 | 56 | 999.7 |
| 20260506041548 | 68 | 0 | 0.0 | 0.0 | 0.00 | 0.00 | 0.00 | 55 | 999.6 |
| 20260506040101 | 69 | 0 | 0.0 | 0.0 | 0.00 | 0.00 | 0.00 | 54 | 999.5 |
| 20260506034551 | 69 | 0 | 0.0 | 0.0 | 0.00 | 0.00 | 0.00 | 53 | 999.5 |
| 20260506033051 | 70 | 0 | 0.0 | 2.0 | 0.00 | 0.00 | 0.00 | 51 | 999.4 |
| 20260506031552 | 70 | 164 | 0.0 | 2.0 | 0.00 | 0.00 | 0.00 | 50 | 999.5 |
| 20260506030054 | 70 | 0 | 0.0 | 5.0 | 0.00 | 0.00 | 0.00 | 50 | 999.5 |
| 20260506024558 | 70 | 0 | 0.0 | 3.0 | 0.00 | 0.00 | 0.00 | 49 | 999.4 |
| 20260506023050 | 70 | 0 | 0.0 | 1.0 | 0.00 | 0.00 | 0.00 | 48 | 999.5 |
| 20260506021601 | 71 | 0 | 0.0 | 1.0 | 0.00 | 0.00 | 0.00 | 49 | 999.4 |
| 20260506020049 | 71 | 0 | 0.0 | 1.0 | 0.00 | 0.00 | 0.00 | 47 | 999.3 |
| 20260506014550 | 72 | 0 | 0.0 | 0.0 | 0.00 | 0.00 | 0.00 | 46 | 999.2 |
| 20260506013056 | 72 | 0 | 0.0 | 3.0 | 0.00 | 0.00 | 0.00 | 46 | 999.1 |
| 20260506011602 | 72 | 0 | 0.0 | 3.0 | 0.00 | 0.00 | 0.00 | 46 | 998.9 |
| 20260506010052 | 73 | 0 | 0.0 | 1.0 | 0.00 | 0.00 | 0.00 | 46 | 998.7 |
| 20260506004556 | 73 | 0 | 0.0 | 3.0 | 0.00 | 0.00 | 0.00 | 45 | 998.7 |
| 20260506003051 | 73 | 0 | 0.0 | 5.0 | 0.00 | 0.00 | 0.00 | 44 | 998.5 |
| 20260506001554 | 74 | 0 | 0.0 | 7.0 | 0.00 | 0.00 | 0.00 | 43 | 998.3 |
| 20260506000057 | 74 | 0 | 0.0 | 4.0 | 0.00 | 0.00 | 0.00 | 43 | 998.3 |
| 20260505234606 | 75 | 195 | 0.0 | 4.0 | 0.00 | 0.00 | 0.00 | 42 | 998.1 |
| 20260505233055 | 75 | 0 | 1.0 | 4.0 | 0.00 | 0.00 | 0.00 | 41 | 997.9 |
| 20260505231608 | 76 | 0 | 1.0 | 5.0 | 0.00 | 0.00 | 0.00 | 40 | 997.5 |
| 20260505230058 | 76 | 0 | 1.0 | 4.0 | 0.00 | 0.00 | 0.00 | 39 | 997.6 |
| 20260505224606 | 77 | 0 | 1.0 | 4.0 | 0.00 | 0.00 | 0.00 | 39 | 997.3 |
| 20260505223106 | 77 | 216 | 1.0 | 12.0 | 0.00 | 0.00 | 0.00 | 37 | 997.1 |
| 20260505221606 | 77 | 202 | 1.0 | 5.0 | 0.00 | 0.00 | 0.00 | 37 | 997.0 |
| 20260505220058 | 78 | 164 | 3.0 | 8.0 | 0.00 | 0.00 | 0.00 | 35 | 996.7 |
| 20260505214614 | 78 | 0 | 1.0 | 9.0 | 0.00 | 0.00 | 0.00 | 37 | 996.6 |
| 20260505213102 | 79 | 173 | 5.0 | 11.0 | 0.00 | 0.00 | 0.00 | 35 | 996.4 |
| 20260505211601 | 79 | 195 | 2.0 | 10.0 | 0.00 | 0.00 | 0.00 | 36 | 996.4 |
| 20260505210058 | 79 | 166 | 3.0 | 8.0 | 0.00 | 0.00 | 0.00 | 35 | 996.4 |
| 20260505204556 | 80 | 211 | 3.0 | 10.0 | 0.00 | 0.00 | 0.00 | 34 | 996.3 |
| 20260505203054 | 80 | 185 | 3.0 | 11.0 | 0.00 | 0.00 | 0.00 | 34 | 996.3 |
| 20260505201558 | 80 | 160 | 5.0 | 13.0 | 0.00 | 0.00 | 0.00 | 36 | 996.4 |
| 20260505200059 | 80 | 248 | 4.0 | 12.0 | 0.00 | 0.00 | 0.00 | 36 | 996.6 |
| 20260505194557 | 80 | 205 | 3.0 | 14.0 | 0.00 | 0.00 | 0.00 | 35 | 996.8 |
| 20260505193056 | 80 | 217 | 3.0 | 12.0 | 0.00 | 0.00 | 0.00 | 35 | 997.1 |
| 20260505191554 | 80 | 163 | 5.0 | 10.0 | 0.00 | 0.00 | 0.00 | 35 | 997.2 |
| 20260505190054 | 80 | 0 | 0.0 | 0.0 | 0.00 | 0.00 | 0.00 | 38 | 997.2 |
| 20260505184553 | 79 | 0 | 0.0 | 8.0 | 0.00 | 0.00 | 0.00 | 39 | 997.6 |
| 20260505183106 | 80 | 0 | 0.0 | 5.0 | 0.00 | 0.00 | 0.00 | 41 | 997.6 |
| 20260505181554 | 80 | 0 | 0.0 | 5.0 | 0.00 | 0.00 | 0.00 | 39 | 997.9 |
| 20260505174601 | 79 | 0 | 0.0 | 0.0 | 0.00 | 0.00 | 0.00 | 44 | 997.9 |
| 20260505173054 | 78 | 0 | 0.0 | 0.0 | 0.00 | 0.00 | 0.00 | 44 | 998.3 |
| 20260505171551 | 78 | 0 | 0.0 | 0.0 | 0.00 | 0.00 | 0.00 | 46 | 998.3 |
| 20260505170055 | 78 | 0 | 0.0 | 0.0 | 0.00 | 0.00 | 0.00 | 44 | 998.3 |
| 20260505164551 | 78 | 0 | 0.0 | 0.0 | 0.00 | 0.00 | 0.00 | 47 | 998.6 |
| 20260505163053 | 77 | 0 | 0.0 | 0.0 | 0.00 | 0.00 | 0.00 | 49 | 998.9 |
| 20260505161602 | 76 | 0 | 0.0 | 0.0 | 0.00 | 0.00 | 0.00 | 49 | 999.0 |
| 20260505153102 | 75 | 0 | 0.0 | 0.0 | 0.00 | 0.00 | 0.00 | 52 | 999.6 |
| 20260505151607 | 75 | 0 | 0.0 | 0.0 | 0.00 | 0.00 | 0.00 | 52 | 999.6 |
| 20260505140111 | 67 | 0 | 0.0 | 0.0 | 0.00 | 0.00 | 0.00 | 63 | 1000.2 |
| 20260505124607 | 57 | 0 | 0.0 | 0.0 | 0.00 | 0.00 | 0.00 | 75 | 1000.3 |
| 20260505123053 | 55 | 0 | 0.0 | 0.0 | 0.00 | 0.00 | 0.00 | 76 | 1000.2 |
| 20260505121559 | 54 | 0 | 0.0 | 0.0 | 0.00 | 0.00 | 0.00 | 77 | 1000.2 |
| 20260505120054 | 52 | 0 | 0.0 | 0.0 | 0.00 | 0.00 | 0.00 | 79 | 1000.4 |
| 20260505114559 | 52 | 0 | 0.0 | 0.0 | 0.00 | 0.00 | 0.00 | 79 | 1000.4 |
| 20260505113111 | 51 | 0 | 0.0 | 0.0 | 0.00 | 0.00 | 0.00 | 78 | 1000.5 |
| 20260505111551 | 51 | 0 | 0.0 | 0.0 | 0.00 | 0.00 | 0.00 | 77 | 1000.5 |